EN

Hourly Weather Ozdiv

Today, 1 March, Monday

Time Temperature Precipitation Wind Pressure Humidity
00:00 0°C° 0.2 mm 5 mps 748 mmHg 96%
01:00 0°C° 0.2 mm 5 mps 749 mmHg 96%
02:00 0°C° 0 mm 4 mps 749 mmHg 98%
03:00 0°C° 0.1 mm 4 mps 750 mmHg 98%
04:00 0°C° 0.1 mm 4 mps 750 mmHg 98%
05:00 0°C° 0.1 mm 4 mps 750 mmHg 98%
06:00 +1°C° 0 mm 3 mps 751 mmHg 97%
07:00 +1°C° 0 mm 3 mps 751 mmHg 97%
08:00 +1°C° 0 mm 3 mps 752 mmHg 97%
09:00 +2°C° 0 mm 3 mps 752 mmHg 94%
10:00 +3°C° 0 mm 2 mps 753 mmHg 91%
11:00 +3°C° 0 mm 2 mps 753 mmHg 89%
12:00 +4°C° 0 mm 2 mps 753 mmHg 85%
13:00 +3°C° 0 mm 3 mps 754 mmHg 82%
14:00 +4°C° 0 mm 3 mps 754 mmHg 79%
15:00 +3°C° 0 mm 3 mps 754 mmHg 80%
16:00 +4°C° 0 mm 2 mps 754 mmHg 81%
17:00 +4°C° 0 mm 2 mps 754 mmHg 82%
18:00 +3°C° 0 mm 2 mps 754 mmHg 84%
19:00 +3°C° 0 mm 2 mps 754 mmHg 87%
20:00 +2°C° 0 mm 2 mps 754 mmHg 89%
21:00 +1°C° 0 mm 3 mps 754 mmHg 90%
22:00 0°C° 0 mm 3 mps 754 mmHg 90%
23:00 0°C° 0 mm 3 mps 754 mmHg 91%

Tomorrow, 2 March, Tuesday

Time Temperature Precipitation Wind Pressure Humidity
00:00 0°C° 0 mm 3 mps 754 mmHg 91%
01:00 -1°C° 0 mm 4 mps 754 mmHg 92%
02:00 -1°C° 0 mm 4 mps 754 mmHg 93%
03:00 -1°C° 0 mm 4 mps 753 mmHg 93%
04:00 -1°C° 0 mm 5 mps 752 mmHg 93%
05:00 -1°C° 0 mm 5 mps 752 mmHg 93%
06:00 -1°C° 0 mm 5 mps 752 mmHg 92%
07:00 -2°C° 0 mm 6 mps 752 mmHg 91%
08:00 -2°C° 0 mm 6 mps 752 mmHg 90%
09:00 +1°C° 0 mm 6 mps 751 mmHg 85%
10:00 +2°C° 0 mm 7 mps 751 mmHg 80%
11:00 +4°C° 0 mm 7 mps 751 mmHg 75%
12:00 +5°C° 0 mm 7 mps 750 mmHg 71%
13:00 +6°C° 0 mm 7 mps 750 mmHg 67%
14:00 +7°C° 0 mm 8 mps 750 mmHg 62%
15:00 +6°C° 0 mm 7 mps 750 mmHg 64%
16:00 +7°C° 0 mm 6 mps 749 mmHg 65%
17:00 +7°C° 0 mm 6 mps 749 mmHg 66%
18:00 +5°C° 0 mm 6 mps 749 mmHg 70%
19:00 +5°C° 0 mm 5 mps 750 mmHg 74%
20:00 +3°C° 0 mm 5 mps 750 mmHg 78%
21:00 +2°C° 0 mm 5 mps 750 mmHg 82%
22:00 +3°C° 0 mm 4 mps 751 mmHg 85%
23:00 +1°C° 0 mm 4 mps 751 mmHg 89%

Day after tomorrow, 3 March, Wednesday

Time Temperature Precipitation Wind Pressure Humidity
00:00 +1°C° 0 mm 4 mps 751 mmHg 91%
01:00 +1°C° 0 mm 3 mps 751 mmHg 92%
02:00 +1°C° 0 mm 3 mps 751 mmHg 94%
03:00 0°C° 0 mm 3 mps 751 mmHg 95%
04:00 +1°C° 0 mm 2 mps 751 mmHg 95%
05:00 -1°C° 0 mm 2 mps 751 mmHg 95%
06:00 -1°C° 0 mm 2 mps 752 mmHg 94%
07:00 -1°C° 0 mm 2 mps 752 mmHg 93%
08:00 +1°C° 0 mm 1 mps 752 mmHg 92%
09:00 +2°C° 0 mm 2 mps 752 mmHg 82%
10:00 +3°C° 0 mm 2 mps 752 mmHg 73%
11:00 +4°C° 0 mm 2 mps 752 mmHg 64%
12:00 +5°C° 0 mm 2 mps 752 mmHg 60%
13:00 +6°C° 0 mm 2 mps 752 mmHg 56%
14:00 +6°C° 0 mm 2 mps 751 mmHg 53%
15:00 +6°C° 0 mm 2 mps 751 mmHg 57%
16:00 +6°C° 0 mm 2 mps 750 mmHg 61%
17:00 +5°C° 0 mm 2 mps 750 mmHg 65%
18:00 +4°C° 0 mm 2 mps 749 mmHg 70%
19:00 +3°C° 0 mm 2 mps 749 mmHg 76%
20:00 +2°C° 0 mm 2 mps 749 mmHg 81%
21:00 +2°C° 0 mm 2 mps 748 mmHg 83%
22:00 +2°C° 0 mm 2 mps 748 mmHg 85%
23:00 +1°C° 0 mm 3 mps 747 mmHg 87%

4 March, Thursday

Time Temperature Precipitation Wind Pressure Humidity
00:00 0°C° 0 mm 3 mps 747 mmHg 89%
01:00 0°C° 0 mm 3 mps 746 mmHg 90%
02:00 0°C° 0 mm 3 mps 745 mmHg 91%
03:00 -1°C° 0 mm 4 mps 745 mmHg 91%
04:00 -1°C° 0 mm 4 mps 744 mmHg 91%
05:00 -1°C° 0 mm 4 mps 743 mmHg 90%
06:00 -1°C° 0 mm 5 mps 743 mmHg 90%
07:00 0°C° 0 mm 5 mps 742 mmHg 89%
08:00 0°C° 0 mm 5 mps 742 mmHg 88%
09:00 +2°C° 0 mm 6 mps 741 mmHg 82%
10:00 +3°C° 0 mm 7 mps 741 mmHg 75%
11:00 +5°C° 0 mm 7 mps 740 mmHg 69%
12:00 +6°C° 0 mm 7 mps 740 mmHg 66%
13:00 +6°C° 0 mm 7 mps 740 mmHg 64%
14:00 +8°C° 0 mm 7 mps 739 mmHg 61%
15:00 +8°C° 0 mm 6 mps 739 mmHg 64%
16:00 +8°C° 0 mm 5 mps 738 mmHg 66%
17:00 +7°C° 0 mm 4 mps 738 mmHg 68%
18:00 +7°C° 0 mm 4 mps 738 mmHg 72%
19:00 +6°C° 0 mm 4 mps 738 mmHg 76%
20:00 +7°C° 0 mm 3 mps 738 mmHg 79%
21:00 +5°C° 0.1 mm 3 mps 738 mmHg 83%
22:00 +5°C° 0.1 mm 3 mps 738 mmHg 87%
23:00 +4°C° 0.1 mm 3 mps 737 mmHg 91%

5 March, Friday

Time Temperature Precipitation Wind Pressure Humidity
00:00 +4°C° 0.3 mm 3 mps 737 mmHg 92%
01:00 +5°C° 0.3 mm 2 mps 737 mmHg 93%
02:00 +4°C° 0.3 mm 2 mps 736 mmHg 94%
03:00 +4°C° 0.4 mm 2 mps 736 mmHg 95%
04:00 +5°C° 0.4 mm 1 mps 735 mmHg 95%
05:00 +5°C° 0.4 mm 1 mps 735 mmHg 96%
06:00 +5°C° 0.9 mm 1 mps 735 mmHg 96%
07:00 +4°C° 0.9 mm 2 mps 734 mmHg 95%
08:00 +4°C° 0.9 mm 2 mps 734 mmHg 95%
09:00 +4°C° 0.6 mm 2 mps 734 mmHg 95%
10:00 +2°C° 0.6 mm 3 mps 735 mmHg 96%
11:00 +2°C° 0.6 mm 3 mps 735 mmHg 96%
12:00 +1°C° 0.2 mm 4 mps 735 mmHg 95%
13:00 0°C° 0.2 mm 4 mps 735 mmHg 95%
14:00 0°C° 0.2 mm 4 mps 736 mmHg 94%
15:00 -1°C° 0.3 mm 5 mps 736 mmHg 94%
16:00 -1°C° 0.3 mm 5 mps 737 mmHg 94%
17:00 -3°C° 0.3 mm 6 mps 738 mmHg 94%
18:00 -2°C° 0.1 mm 5 mps 738 mmHg 89%
19:00 -2°C° 0.1 mm 5 mps 739 mmHg 85%
20:00 -3°C° 0.1 mm 4 mps 740 mmHg 80%
21:00 -3°C° 0 mm 4 mps 741 mmHg 76%
22:00 -3°C° 0 mm 4 mps 741 mmHg 72%
23:00 -3°C° 0 mm 4 mps 742 mmHg 68%

6 March, Saturday

Time Temperature Precipitation Wind Pressure Humidity
00:00 -4°C° 0 mm 4 mps 743 mmHg 68%
01:00 -4°C° 0 mm 3 mps 743 mmHg 68%
02:00 -5°C° 0 mm 3 mps 744 mmHg 68%
03:00 -5°C° 0 mm 3 mps 744 mmHg 67%
04:00 -5°C° 0 mm 3 mps 744 mmHg 65%
05:00 -5°C° 0 mm 3 mps 745 mmHg 64%
06:00 -5°C° 0 mm 3 mps 745 mmHg 60%
07:00 -5°C° 0 mm 3 mps 746 mmHg 56%
08:00 -5°C° 0 mm 3 mps 746 mmHg 52%
09:00 -4°C° 0 mm 4 mps 747 mmHg 48%
10:00 -3°C° 0 mm 4 mps 747 mmHg 44%
11:00 -2°C° 0 mm 5 mps 747 mmHg 39%
12:00 -2°C° 0.1 mm 5 mps 747 mmHg 40%
13:00 -3°C° 0.1 mm 6 mps 748 mmHg 40%
14:00 -2°C° 0.1 mm 6 mps 748 mmHg 40%
15:00 -3°C° 0 mm 6 mps 748 mmHg 42%
16:00 -2°C° 0 mm 5 mps 748 mmHg 43%
17:00 -4°C° 0 mm 5 mps 749 mmHg 44%
18:00 -3°C° 0 mm 4 mps 749 mmHg 49%
19:00 -4°C° 0 mm 3 mps 750 mmHg 55%
20:00 -4°C° 0 mm 2 mps 750 mmHg 60%
21:00 -4°C° 0 mm 2 mps 751 mmHg 60%
22:00 -4°C° 0 mm 2 mps 751 mmHg 60%
23:00 -4°C° 0 mm 2 mps 752 mmHg 60%
Show more

We Need Your Consent

Meteoprog and our Service Providers may store and access personal data such as cookies, device identifiers or other similar technologies on your device and process such data to personalise content and ads, as well as provide social media features and to analyse the traffic.

  • Store and/or access information on your device

    Cookies, device identifiers or other information can be stored or accessed on your device for the purposes indicated above.

  • Personalised ads and content, ad and content measurement, audience insights, and products development

    Ads and content can be personalised based on a profile. More data can be added to better personalise ads and content. Ad and content performance can be measured. Insights about the audience who saw the ads and content can be derived. Such data can be used to develop or improve user’s experience, systems and software.

By clicking ‘I Agree’ you will allow the use of indicated cookies, device identifiers, web beacons or other similar technologies. Your settings can be changed in the browser on your device.

For certain purposes, legitimate interests may be relied on, rather than consent. You can read more about this in our Privacy and Cookie Policy.